KB9ZI Weather Reports


time (UTC)temp
C
wind
direction
speed
KPH
gust
KPH
rain 1hr
cm
rain 24hr
cm
rain mn
cm
humidity
%
barometer
mb
20260831025317 24 178 0.0 0.0 0.00 0.00 0.00 88 1008.6
20260831025311 24 183 0.0 0.0 0.00 0.00 0.00 88 1008.7
20260831025012 24 204 0.0 0.0 0.00 0.00 0.00 88 1008.6
20260831024913 24 197 0.0 0.0 0.00 0.00 0.00 88 1008.7
20260831024712 24 173 0.0 0.0 0.00 0.00 0.00 87 1008.7
20260831024513 24 173 0.0 0.0 0.00 0.00 0.00 87 1008.7
20260831024344 24 165 0.0 0.0 0.00 0.00 0.00 87 1008.8
20260831024313 24 305 0.0 0.0 0.00 0.00 0.00 87 1008.8
20260831024307 24 159 0.0 0.0 0.00 0.00 0.00 87 1008.8
20260831023911 24 168 0.0 0.0 0.00 0.00 0.00 87 1008.7
20260831023816 24 155 0.0 0.0 0.00 0.00 0.00 87 1008.7
20260831023518 24 226 0.0 0.0 0.00 0.00 0.00 86 1008.8
20260831023234 -17 0.0 0.0 0.00 0.00 0.00
20260831023202 -17 0.0 0.0 0.00 0.00 0.00
20260831023034 -17 0.0 0.0 0.00 0.00 0.00
20260831022834 -17 0.0 0.0 0.00 0.00 0.00
20260831022711 -17 0.0 0.0 0.00 0.00 0.00
20260831022702 -17 0.0 0.0 0.00 0.00 0.00
20260831022408 -17 0.0 0.0 0.00 0.00 0.00
20260831022310 -17 0.0 0.0 0.00 0.00 0.00
20260831022207 -17 0.0 0.0 0.00 0.00 0.00
20260831022006 -17 0.0 0.0 0.00 0.00 0.00 1008.8
20260831021735 -17 0.0 0.0 0.00 0.00 0.00 1008.8
20260831021634 25 190 0.0 0.0 0.00 0.00 0.00 84 1008.8
20260831021535 25 190 0.0 0.0 0.00 0.00 0.00 84 1008.8
20260831021335 25 190 0.0 0.0 0.00 0.00 0.00 84 1008.8
20260831021239 25 190 0.0 0.0 0.00 0.00 0.00 84 1008.8
20260831021132 25 190 0.0 0.0 0.00 0.00 0.00 84 1008.8
20260831020934 25 190 0.0 0.0 0.00 0.00 0.00 84 1008.9
20260831020732 25 190 0.0 0.0 0.00 0.00 0.00 84 1008.8
20260831020633 25 192 0.0 0.0 0.00 0.00 0.00 84 1008.9
20260831020612 25 190 0.0 0.0 0.00 0.00 0.00 84 1008.9
20260831020331 25 175 0.0 0.0 0.00 0.00 0.00 84 1009.0
20260831020231 25 176 0.0 0.0 0.00 0.00 0.00 84 1009.0
20260831020105 25 176 0.0 0.0 0.00 0.00 0.00 84 1008.9
20260831015930 25 188 0.0 0.0 0.00 0.00 0.00 84 1009.0
20260831015732 25 206 0.0 0.0 0.00 0.00 0.00 84 1009.0
20260831015603 25 157 0.0 0.0 0.00 0.00 0.00 84 1009.0
20260831015531 25 162 0.0 0.0 0.00 0.00 0.00 84 1009.0
20260831015331 25 169 0.0 0.0 0.00 0.00 0.00 84 1009.0
20260831015231 25 168 0.0 0.0 0.00 0.00 0.00 84 1008.9
20260831015103 25 162 0.0 0.0 0.00 0.00 0.00 84 1009.0
20260831014941 25 158 0.0 0.0 0.00 0.00 0.00 83 1009.0
20260831014932 25 182 0.0 0.0 0.00 0.00 0.00 83 1009.0
20260831014858 25 169 0.0 0.0 0.00 0.00 0.00 83 1008.9
20260831014532 25 52 0.0 0.0 0.00 0.00 0.00 83 1008.9
20260831014331 25 34 0.0 0.0 0.00 0.00 0.00 83 1009.0
20260831014136 25 204 0.0 0.0 0.00 0.00 0.00 83 1009.0
20260831014102 25 204 0.0 0.0 0.00 0.00 0.00 83 1009.0
20260831013930 25 202 0.0 0.0 0.00 0.00 0.00 83 1009.0
20260831013911 25 204 0.0 0.0 0.00 0.00 0.00 83 1009.0
20260831013851 25 204 0.0 0.0 0.00 0.00 0.00 82 1009.0
20260831013505 25 204 0.0 0.0 0.00 0.00 0.00 82 1008.9
20260831013358 25 204 0.0 0.0 0.00 0.00 0.00 82 1008.8
20260831013104 26 176 0.0 0.0 0.00 0.00 0.00 82 1008.9
20260831012903 26 176 0.0 0.0 0.00 0.00 0.00 82 1008.7
20260831012823 26 140 0.0 0.0 0.00 0.00 0.00 82 1008.6
20260831012806 26 65 0.0 0.0 0.00 0.00 0.00 82 1008.6
20260831012439 26 172 0.0 0.0 0.00 0.00 0.00 82 1008.6
20260831012240 26 173 0.0 0.0 0.00 0.00 0.00 82 1008.7
20260831012049 26 172 0.0 0.0 0.00 0.00 0.00 81 1008.6
20260831012033 26 166 0.0 0.0 0.00 0.00 0.00 81 1008.7
20260831011632 26 164 0.0 0.0 0.00 0.00 0.00 81 1008.6
20260831011532 26 161 0.0 0.0 0.00 0.00 0.00 81 1008.6
20260831011433 26 179 0.0 0.0 0.00 0.00 0.00 81 1008.6
20260831011231 26 178 0.0 0.0 0.00 0.00 0.00 81 1008.6
20260831011032 26 172 0.0 0.0 0.00 0.00 0.00 80 1008.7
20260831010830 26 158 0.0 0.0 0.00 0.00 0.00 80 1008.6
20260831010637 26 165 0.0 0.0 0.00 0.00 0.00 80 1008.7
20260831010630 26 158 0.0 0.0 0.00 0.00 0.00 80 1008.6
20260831010530 26 158 0.0 0.0 0.00 0.00 0.00 80 1008.6
20260831010231 26 176 0.0 0.0 0.00 0.00 0.00 80 1008.6
20260831010050 26 237 0.0 0.0 0.00 0.00 0.00 79 1008.6
20260831005831 26 227 0.0 0.0 0.00 0.00 0.00 79 1008.6
20260831005631 26 75 0.0 0.0 0.00 0.00 0.00 79 1008.4
20260831005532 26 183 0.0 0.0 0.00 0.00 0.00 78 1008.4
20260831005433 26 175 0.0 0.0 0.00 0.00 0.00 78 1008.2
20260831005229 26 173 0.0 0.0 0.00 0.00 0.00 78 1008.3
20260831005033 -17 0.0 0.0 0.00 0.00 0.00 1008.2
20260831004610 -17 0.0 0.0 0.00 0.00 0.00
20260831004406 -17 0.0 0.0 0.00 0.00 0.00
20260831004331 -17 0.0 0.0 0.00 0.00 0.00
20260831004309 -17 0.0 0.0 0.00 0.00 0.00
20260831004109 -17 0.0 0.0 0.00 0.00 0.00
20260831003830 -17 0.0 0.0 0.00 0.00 0.00
20260831003735 -17 0.0 0.0 0.00 0.00 0.00 1008.2
20260831003544 -17 0.0 0.0 0.00 0.00 0.00 1008.2
20260831003525 -17 0.0 0.0 0.00 0.00 0.00 1008.2
20260831003134 28 39 0.0 0.0 0.00 0.00 0.00 74 1008.2
20260831003044 28 39 0.0 0.0 0.00 0.00 0.00 74 1008.2
20260831003027 28 39 0.0 0.0 0.00 0.00 0.00 74 1008.2
20260831002756 28 39 0.0 0.0 0.00 0.00 0.00 74 1008.2
20260831002603 28 39 0.0 0.0 0.00 0.00 0.00 74 1008.2
20260831002301 28 39 0.0 0.0 0.00 0.00 0.00 74 1008.1
20260831002257 28 39 0.0 0.0 0.00 0.00 0.00 74 1008.1
20260831002054 28 37 0.0 0.0 0.00 0.00 0.00 74 1008.0
20260831002045 28 42 0.0 0.0 0.00 0.00 0.00 74 1008.0
20260831002014 28 34 0.0 0.0 0.00 0.00 0.00 74 1008.0
20260831001631 28 27 0.0 0.0 0.00 0.00 0.00 74 1008.0
20260831001437 28 47 0.0 0.0 0.00 0.00 0.00 73 1007.8
20260831001336 28 172 0.0 0.0 0.00 0.00 0.00 72 1007.8
20260831001253 28 172 0.0 0.0 0.00 0.00 0.00 72 1007.8
20260831001136 28 172 0.0 0.0 0.00 0.00 0.00 72 1007.8
20260831001037 28 172 0.0 0.0 0.00 0.00 0.00 72 1007.8
20260831001009 28 172 0.0 0.0 0.00 0.00 0.00 72 1007.9
20260831000629 28 172 0.0 0.0 0.00 0.00 0.00 71 1007.9
20260831000432 29 173 0.0 0.0 0.00 0.00 0.00 71 1007.8
20260831000244 29 165 0.0 0.0 0.00 0.00 0.00 71 1007.8
20260831000229 29 164 0.0 0.0 0.00 0.00 0.00 71 1007.8
20260831000049 29 113 0.0 0.0 0.00 0.00 0.00 70 1007.8
20260831000044 29 166 0.0 0.0 0.00 0.00 0.00 70 1007.6
20260831000039 29 165 0.0 0.0 0.00 0.00 0.00 70 1007.6
20260831000006 29 165 0.0 0.0 0.00 0.00 0.00 70 1007.6
20260830235427 30 25 0.0 0.0 0.00 0.00 0.00 70 1007.6
20260830235242 30 25 0.0 0.0 0.00 0.00 0.00 70 1007.6
20260830235218 30 24 0.0 0.0 0.00 0.00 0.00 70 1007.6
20260830235041 30 93 0.0 0.0 0.00 0.00 0.00 70 1007.5
20260830235034 30 24 0.0 0.0 0.00 0.00 0.00 69 1007.5
20260830235000 30 18 0.0 0.0 0.00 0.00 0.00 70 1007.6
20260830234610 30 1 0.0 0.0 0.00 0.00 0.00 70 1007.5
20260830234417 30 32 0.0 1.6 0.00 0.00 0.00 70 1007.6
20260830234412 30 34 0.0 0.0 0.00 0.00 0.00 71 1007.5
20260830234235 30 34 0.0 0.0 0.00 0.00 0.00 70 1007.6
20260830234035 30 52 0.0 3.2 0.00 0.00 0.00 70 1007.8
20260830234025 30 159 0.0 1.6 0.00 0.00 0.00 70 1007.8
20260830233955 30 54 0.0 3.2 0.00 0.00 0.00 70 1007.6
20260830233605 30 169 0.0 4.8 0.00 0.00 0.00 71 1007.8
20260830233408 30 166 0.0 8.0 0.00 0.00 0.00 70 1007.9
20260830233234 30 168 0.0 8.0 0.00 0.00 0.00 70 1007.6
20260830233209 30 151 0.0 8.0 0.00 0.00 0.00 70 1007.6
20260830233055 30 173 0.0 14.5 0.00 0.00 0.00 70 1007.8
20260830233036 30 175 0.0 14.5 0.00 0.00 0.00 70 1007.6
20260830233026 30 66 0.0 14.5 0.00 0.00 0.00 71 1007.8
20260830232605 30 173 0.0 14.5 0.00 0.00 0.00 69 1007.8
20260830232402 30 196 0.0 14.5 0.00 0.00 0.00 69 1007.6
20260830232231 30 27 0.0 14.5 0.00 0.00 0.00 69 1007.8
20260830232202 30 154 0.0 14.5 0.00 0.00 0.00 69 1007.8
20260830232003 30 169 0.0 11.3 0.00 0.00 0.00 69 1007.8
20260830231803 30 179 0.0 11.3 0.00 0.00 0.00 69 1007.8
20260830231731 30 158 0.0 11.3 0.00 0.00 0.00 69 1007.9
20260830231701 30 185 0.0 9.7 0.00 0.00 0.00 70 1007.8
20260830231500 30 176 0.0 9.7 0.00 0.00 0.00 70 1007.9
20260830231234 30 147 0.0 9.7 0.00 0.00 0.00 70 1007.8
20260830231159 30 244 0.0 9.7 0.00 0.00 0.00 70 1007.8
20260830231002 30 155 0.0 9.7 0.00 0.00 0.00 70 1007.9
20260830230759 30 182 0.0 9.7 0.00 0.00 0.00 70 1007.9
20260830230730 30 162 0.0 9.7 0.00 0.00 0.00 70 1007.9
20260830230559 30 176 0.0 9.7 0.00 0.00 0.00 70 1007.9
20260830230529 30 175 0.0 9.7 0.00 0.00 0.00 72 1007.9
20260830230525 30 180 0.0 9.7 0.00 0.00 0.00 72 1007.9
20260830230505 30 165 0.0 9.7 0.00 0.00 0.00 71 1007.9
20260830230057 30 180 0.0 4.8 0.00 0.00 0.00 72 1007.9
20260830225757 30 180 0.0 8.0 0.00 0.00 0.00 72 1007.9
20260830225732 30 11 0.0 8.0 0.00 0.00 0.00 72 1007.9
20260830225556 30 351 0.0 9.7 0.00 0.00 0.00 72 1007.8
20260830225529 30 203 0.0 14.5 0.00 0.00 0.00 72 1007.8
20260830225509 30 185 0.0 14.5 0.00 0.00 0.00 72 1007.8
20260830225157 30 204 0.0 14.5 0.00 0.00 0.00 72 1007.8
20260830224955 30 168 0.0 14.5 0.00 0.00 0.00 72 1007.8
20260830224754 30 164 0.0 14.5 0.00 0.00 0.00 72 1007.9
20260830224729 30 168 0.0 14.5 0.00 0.00 0.00 72 1007.9
20260830224656 30 169 0.0 14.5 0.00 0.00 0.00 71 1007.8
20260830224525 30 172 0.0 11.3 0.00 0.00 0.00 72 1007.8
20260830224504 30 161 0.0 11.3 0.00 0.00 0.00 72 1007.9
20260830224155 30 144 0.0 11.3 0.00 0.00 0.00 71 1007.8
20260830223953 30 199 0.0 11.3 0.00 0.00 0.00 71 1007.8
20260830223754 30 169 0.0 14.5 0.00 0.00 0.00 71 1007.6
20260830223730 30 168 0.0 14.5 0.00 0.00 0.00 71 1007.6
20260830223636 30 6 0.0 14.5 0.00 0.00 0.00 71 1007.8
20260830223339 30 165 0.0 14.5 0.00 0.00 0.00 71 1007.5
20260830223237 30 169 0.0 14.5 0.00 0.00 0.00 71 1007.5
20260830223229 30 157 0.0 14.5 0.00 0.00 0.00 71 1007.5
20260830222935 30 164 0.0 14.5 0.00 0.00 0.00 71 1007.5
20260830222729 30 176 0.0 11.3 0.00 0.00 0.00 71 1007.5
20260830222534 30 127 0.0 11.3 0.00 0.00 0.00 71 1007.5
20260830222333 30 162 0.0 11.3 0.00 0.00 0.00 71 1007.5
20260830222231 30 172 0.0 16.1 0.00 0.00 0.00 72 1007.5
20260830222227 30 166 0.0 16.1 0.00 0.00 0.00 71 1007.4
20260830221931 31 178 0.0 16.1 0.00 0.00 0.00 72 1007.4
20260830221839 31 178 0.0 16.1 0.00 0.00 0.00 72 1007.5
20260830221732 31 178 0.0 16.1 0.00 0.00 0.00 72 1007.5
20260830221504 31 155 0.0 16.1 0.00 0.00 0.00 72 1007.5
20260830221302 31 151 0.0 16.1 0.00 0.00 0.00 71 1007.5
20260830221208 31 180 0.0 11.3 0.00 0.00 0.00 72 1007.5
20260830221102 31 173 0.0 8.0 0.00 0.00 0.00 72 1007.5
20260830220902 31 161 0.0 9.7 0.00 0.00 0.00 72 1007.5
20260830220708 31 213 0.0 9.7 0.00 0.00 0.00 73 1007.5
20260830220702 31 192 0.0 9.7 0.00 0.00 0.00 73 1007.5
20260830220559 31 183 0.0 9.7 0.00 0.00 0.00 72 1007.4
20260830220255 31 39 0.0 9.7 0.00 0.00 0.00 72 1007.5
20260830220207 31 32 0.0 9.7 0.00 0.00 0.00 71 1007.6
20260830220155 31 47 0.0 9.7 0.00 0.00 0.00 70 1007.6
20260830215853 31 0 0.0 8.0 0.00 0.00 0.00 71 1007.6
20260830215706 31 147 0.0 8.0 0.00 0.00 0.00 70 1007.5
20260830215658 31 145 0.0 8.0 0.00 0.00 0.00 70 1007.5
20260830215507 32 166 0.0 9.7 0.00 0.00 0.00 68 1007.5
20260830215459 31 3 0.0 6.4 0.00 0.00 0.00 69 1007.4
20260830215433 32 196 0.0 9.7 0.00 0.00 0.00 68 1007.5
20260830215156 32 258 0.0 9.7 0.00 0.00 0.00 68 1007.5
20260830215004 32 200 0.0 9.7 0.00 0.00 0.00 68 1007.5
20260830214959 32 202 0.0 9.7 0.00 0.00 0.00 68 1007.5
20260830214945 32 192 0.0 9.7 0.00 0.00 0.00 68 1007.4
20260830214457 32 243 0.0 9.7 0.00 0.00 0.00 69 1007.5
20260830214255 32 63 0.0 9.7 0.00 0.00 0.00 71 1007.5
20260830214204 32 24 0.0 9.7 0.00 0.00 0.00 68 1007.5
20260830214055 32 241 0.0 9.7 0.00 0.00 0.00 70 1007.5
20260830214008 31 192 0.0 9.7 0.00 0.00 0.00 71 1007.5
20260830214003 31 195 0.0 9.7 0.00 0.00 0.00 71 1007.5
20260830213946 31 106 0.0 9.7 0.00 0.00 0.00 70 1007.5
20260830213455 31 164 0.0 9.7 0.00 0.00 0.00 70 1007.5
20260830213356 31 20 0.0 8.0 0.00 0.00 0.00 68 1007.5
20260830213207 32 56 0.0 8.0 0.00 0.00 0.00 68 1007.5
20260830213056 32 31 0.0 8.0 0.00 0.00 0.00 69 1007.5
20260830212957 32 73 0.0 8.0 0.00 0.00 0.00 68 1007.5
20260830212945 32 31 0.0 8.0 0.00 0.00 0.00 69 1007.5
20260830212655 32 68 0.0 8.0 0.00 0.00 0.00 70 1007.5
20260830212453 32 41 0.0 6.4 0.00 0.00 0.00 69 1007.5
20260830212358 32 63 0.0 6.4 0.00 0.00 0.00 70 1007.4
20260830212202 32 39 0.0 8.0 0.00 0.00 0.00 70 1007.5
20260830212054 32 21 0.0 9.7 0.00 0.00 0.00 68 1007.4
20260830211958 32 37 0.0 11.3 0.00 0.00 0.00 70 1007.6
20260830211942 32 39 0.0 11.3 0.00 0.00 0.00 71 1007.5
20260830211655 31 38 0.0 11.3 0.00 0.00 0.00 70 1007.6
20260830211549 31 38 0.0 11.3 0.00 0.00 0.00 71 1007.6
20260830211253 31 27 0.0 11.3 0.00 0.00 0.00 70 1007.6
20260830211202 31 30 0.0 11.3 0.00 0.00 0.00 69 1007.8
20260830211053 31 31 0.0 11.3 0.00 0.00 0.00 69 1007.8
20260830210952 31 0 0.0 8.0 0.00 0.00 0.00 69 1007.8
20260830210654 32 207 0.0 8.0 0.00 0.00 0.00 69 1007.9
20260830210454 31 31 0.0 8.0 0.00 0.00 0.00 69 1007.9
20260830210253 31 188 0.0 16.1 0.00 0.00 0.00 69 1007.9
20260830210200 31 212 0.0 16.1 0.00 0.00 0.00 68 1007.9
20260830210153 31 188 0.0 16.1 0.00 0.00 0.00 69 1007.8
20260830205854 31 321 0.0 16.1 0.00 0.00 0.00 70 1007.9
20260830205702 31 42 0.0 16.1 0.00 0.00 0.00 70 1007.9
20260830205655 31 116 0.0 16.1 0.00 0.00 0.00 69 1007.9
20260830205553 31 86 0.0 16.1 0.00 0.00 0.00 71 1007.8
20260830205253 31 93 0.0 11.3 0.00 0.00 0.00 70 1007.9
20260830205158 31 161 0.0 11.3 0.00 0.00 0.00 73 1007.9
20260830205055 31 27 0.0 9.7 0.00 0.00 0.00 75 1007.9
20260830204855 31 18 0.0 9.7 0.00 0.00 0.00 73 1007.9
20260830204755 31 31 0.0 4.8 0.00 0.00 0.00 74 1007.9
20260830204659 31 63 0.0 8.0 0.00 0.00 0.00 74 1007.9
20260830204457 31 157 0.0 9.7 0.00 0.00 0.00 73 1007.9
20260830204256 31 164 0.0 9.7 0.00 0.00 0.00 74 1007.9
20260830204156 31 63 0.0 9.7 0.00 0.00 0.00 73 1007.9
20260830204056 31 238 0.0 9.7 0.00 0.00 0.00 74 1008.0
20260830203956 31 238 0.0 16.1 0.00 0.00 0.00 74 1008.1
20260830203657 31 28 0.0 16.1 0.00 0.00 0.00 74 1008.1
20260830203555 31 87 0.0 16.1 0.00 0.00 0.00 75 1008.1
20260830203444 31 7 0.0 16.1 0.00 0.00 0.00 75 1008.2
20260830203427 31 24 0.0 16.1 0.00 0.00 0.00 75 1008.1
20260830203055 31 49 0.0 16.1 0.00 0.00 0.00 75 1008.2
20260830202855 31 24 0.0 16.1 0.00 0.00 0.00 75 1008.3
20260830202656 30 31 0.0 16.1 0.00 0.00 0.00 75 1008.2
20260830202554 30 30 0.0 14.5 0.00 0.00 0.00 74 1008.3
20260830202458 31 31 0.0 17.7 0.00 0.00 0.00 73 1008.3
20260830202447 31 10 0.0 17.7 0.00 0.00 0.00 74 1008.3
20260830202427 31 32 0.0 14.5 0.00 0.00 0.00 75 1008.3
20260830201855 30 49 0.0 17.7 0.00 0.00 0.00 75 1008.2
20260830201656 30 20 0.0 17.7 0.00 0.00 0.00 75 1008.3
20260830201500 30 27 0.0 9.7 0.00 0.00 0.00 75 1008.4
20260830201455 30 334 0.0 17.7 0.00 0.00 0.00 75 1008.4
20260830201445 30 32 0.0 9.7 0.00 0.00 0.00 77 1008.4
20260830201424 30 1 0.0 16.1 0.00 0.00 0.00 75 1008.5
20260830200855 30 28 0.0 4.8 0.00 0.00 0.00 75 1008.5
20260830200817 30 0 0.0 0.0 0.00 0.00 0.00 74 1008.5
20260830200721 -17 0.0 0.0 0.00 0.00 0.00
20260830200709 30 0 0.0 0.0 0.00 0.00 0.00 74 1008.5
20260830200701 -17 0.0 0.0 0.00 0.00 0.00
20260830200307 -17 0.0 0.0 0.00 0.00 0.00
20260830200108 -17 0.0 0.0 0.00 0.00 0.00
20260830200013 -17 0.0 0.0 0.00 0.00 0.00
20260830195906 -17 0.0 0.0 0.00 0.00 0.00
20260830195658 -17 0.0 0.0 0.00 0.00 0.00
20260830195635 -17 0.0 0.0 0.00 0.00 0.00
20260830195609 -17 0.0 0.0 0.00 0.00 0.00 1008.4
20260830195234 -17 0.0 0.0 0.00 0.00 0.00 1008.4
20260830195048 -17 0.0 0.0 0.00 0.00 0.00 1008.4
20260830194836 29 38 0.0 8.0 0.00 0.00 0.00 78 1008.4
20260830194607 29 38 0.0 9.7 0.00 0.00 0.00 78 1008.4
20260830194511 29 38 0.0 9.7 0.00 0.00 0.00 78 1008.4
20260830194331 29 38 0.0 9.7 0.00 0.00 0.00 78 1008.4
20260830194206 29 38 0.0 9.7 0.00 0.00 0.00 78 1008.4
20260830194030 29 38 0.0 9.7 0.00 0.00 0.00 78 1008.5
20260830193829 29 23 0.0 9.7 0.00 0.00 0.00 77 1008.5
20260830193733 29 34 0.0 8.0 0.00 0.00 0.00 77 1008.5
20260830193533 -17 237 0.0 8.0 0.00 0.00 0.00 1008.6
20260830193333 -17 0.0 0.0 0.00 0.00 0.00 1008.6
20260830193004 -17 0.0 0.0 0.00 0.00 0.00
20260830192834 -17 0.0 0.0 0.00 0.00 0.00
20260830192802 -17 0.0 0.0 0.00 0.00 0.00
20260830192532 -17 0.0 0.0 0.00 0.00 0.00
20260830192430 -17 0.0 0.0 0.00 0.00 0.00
20260830192305 -17 0.0 0.0 0.00 0.00 0.00
20260830192131 -17 0.0 0.0 0.00 0.00 0.00
20260830191931 -17 0.0 0.0 0.00 0.00 0.00 1008.3
20260830191734 -17 0.0 0.0 0.00 0.00 0.00 1008.3
20260830191703 -17 0.0 0.0 0.00 0.00 0.00 1008.3
20260830191504 -17 28 0.0 4.8 0.00 0.00 0.00 1008.3
20260830191304 29 28 0.0 9.7 0.00 0.00 0.00 78 1008.3
20260830191233 29 28 0.0 9.7 0.00 0.00 0.00 78 1008.3
20260830191134 29 28 0.0 9.7 0.00 0.00 0.00 78 1008.3
20260830190832 29 28 0.0 11.3 0.00 0.00 0.00 78 1008.4
20260830190732 29 28 0.0 11.3 0.00 0.00 0.00 78 1008.4
20260830190705 29 28 0.0 11.3 0.00 0.00 0.00 78 1008.4
20260830190430 29 49 0.0 11.3 0.00 0.00 0.00 78 1008.5
20260830190231 29 223 0.0 11.3 0.00 0.00 0.00 78 1008.5
20260830190201 29 24 0.0 11.3 0.00 0.00 0.00 78 1008.5
20260830190031 29 18 0.0 14.5 0.00 0.00 0.00 77 1008.5
20260830190004 29 48 0.0 14.5 0.00 0.00 0.00 77 1008.6
20260830185957 29 48 0.0 14.5 0.00 0.00 0.00 77 1008.5
20260830185933 28 56 0.0 14.5 0.00 0.00 0.00 78 1008.6
20260830185421 28 27 0.0 14.5 0.00 0.00 0.00 78 1008.5
20260830185320 29 66 0.0 14.5 0.00 0.00 0.00 76 1008.4
20260830185152 29 41 0.0 14.5 0.00 0.00 0.00 76 1008.4
20260830185019 29 49 0.0 16.1 0.00 0.00 0.00 79 1008.4
20260830184944 29 56 0.0 16.1 0.00 0.00 0.00 79 1008.5
20260830184921 29 44 0.0 16.1 0.00 0.00 0.00 80 1008.5
20260830184620 29 38 0.0 16.1 0.00 0.00 0.00 78 1008.5
20260830184418 29 75 0.0 16.1 0.00 0.00 0.00 80 1008.6
20260830184316 28 0 0.0 16.1 0.00 0.00 0.00 79 1008.7
20260830184145 28 0 0.0 16.1 0.00 0.00 0.00 79 1008.7
20260830184027 28 44 0.0 16.1 0.00 0.00 0.00 79 1008.6
20260830184017 28 27 0.0 16.1 0.00 0.00 0.00 78 1008.6
20260830183945 28 32 0.0 16.1 0.00 0.00 0.00 77 1008.6
20260830183940 28 69 0.0 16.1 0.00 0.00 0.00 77 1008.7
20260830183420 28 42 0.0 16.1 0.00 0.00 0.00 80 1008.7
20260830183216 28 47 0.0 16.1 0.00 0.00 0.00 78 1008.8
20260830183145 28 44 0.0 16.1 0.00 0.00 0.00 79 1008.8
20260830183015 28 106 0.0 16.1 0.00 0.00 0.00 78 1008.9
20260830182816 28 99 0.0 14.5 0.00 0.00 0.00 79 1008.9
20260830182643 28 25 0.0 14.5 0.00 0.00 0.00 79 1008.9
20260830182616 28 27 0.0 14.5 0.00 0.00 0.00 80 1009.0
20260830182534 28 62 0.0 14.5 0.00 0.00 0.00 79 1009.0
20260830182505 28 48 0.0 11.3 0.00 0.00 0.00 78 1009.0
20260830182440 28 51 0.0 11.3 0.00 0.00 0.00 78 1009.0
20260830182010 28 39 0.0 11.3 0.00 0.00 0.00 79 1008.9
20260830181809 28 38 0.0 11.3 0.00 0.00 0.00 80 1008.9
20260830181645 28 32 0.0 11.3 0.00 0.00 0.00 80 1009.0
20260830181609 28 11 0.0 11.3 0.00 0.00 0.00 80 1009.0
20260830181441 27 39 0.0 14.5 0.00 0.00 0.00 80 1009.2
20260830181432 28 30 0.0 11.3 0.00 0.00 0.00 81 1009.0
20260830181400 27 24 0.0 14.5 0.00 0.00 0.00 81 1009.1
20260830181013 27 55 0.0 14.5 0.00 0.00 0.00 80 1009.2
20260830181008 27 68 0.0 14.5 0.00 0.00 0.00 81 1009.1
20260830180637 27 234 0.0 14.5 0.00 0.00 0.00 81 1009.2
20260830180607 27 16 0.0 14.5 0.00 0.00 0.00 80 1009.2
20260830180441 27 20 0.0 19.3 0.00 0.00 0.00 81 1009.1
20260830180432 27 56 0.0 14.5 0.00 0.00 0.00 82 1009.2
20260830180401 27 37 0.0 19.3 0.00 0.00 0.00 82 1009.2
20260830180004 27 56 0.0 19.3 0.00 0.00 0.00 82 1009.2
20260830175807 27 165 0.0 19.3 0.00 0.00 0.00 82 1009.1
20260830175638 27 49 0.0 19.3 0.00 0.00 0.00 81 1009.0
20260830175602 27 69 0.0 19.3 0.00 0.00 0.00 81 1009.0
20260830175524 27 59 0.0 19.3 0.00 0.00 0.00 81 1009.1
20260830175433 27 34 0.0 14.5 0.00 0.00 0.00 80 1009.1
20260830175354 27 140 0.0 14.5 0.00 0.00 0.00 81 1009.0
20260830174958 27 102 0.0 14.5 0.00 0.00 0.00 80 1009.0
20260830174851 27 58 0.0 11.3 0.00 0.00 0.00 81 1009.1
20260830174637 27 0 0.0 11.3 0.00 0.00 0.00 81 1009.2
20260830174555 27 0 0.0 11.3 0.00 0.00 0.00 81 1009.2
20260830174356 27 35 0.0 14.5 0.00 0.00 0.00 82 1009.2
20260830174154 27 1 0.0 14.5 0.00 0.00 0.00 81 1009.3
20260830174132 27 49 0.0 14.5 0.00 0.00 0.00 81 1009.3
20260830174051 27 34 0.0 14.5 0.00 0.00 0.00 81 1009.3
20260830173758 27 18 0.0 14.5 0.00 0.00 0.00 81 1009.4
20260830173632 27 35 0.0 16.1 0.00 0.00 0.00 81 1009.4
20260830173552 27 32 0.0 16.1 0.00 0.00 0.00 81 1009.4
20260830173454 27 13 0.0 16.1 0.00 0.00 0.00 81 1009.4
20260830173154 27 238 0.0 16.1 0.00 0.00 0.00 83 1009.4
20260830173133 27 110 0.0 16.1 0.00 0.00 0.00 83 1009.4
20260830172951 27 39 0.0 16.1 0.00 0.00 0.00 81 1009.4
20260830172752 27 183 0.0 16.1 0.00 0.00 0.00 81 1009.6
20260830172649 27 39 0.0 9.7 0.00 0.00 0.00 83 1009.7
20260830172633 27 49 0.0 9.7 0.00 0.00 0.00 82 1009.7
20260830172348 27 21 0.0 0.0 0.00 0.00 0.00 84 1009.8
20260830172147 27 7 0.0 0.0 0.00 0.00 0.00 84 1009.7
20260830172133 27 25 0.0 0.0 0.00 0.00 0.00 84 1009.7
20260830171952 27 0 0.0 0.0 0.00 0.00 0.00 85 1009.8
20260830171753 26 28 0.0 0.0 0.00 0.00 0.00 85 1009.7
20260830171632 26 28 0.0 0.0 0.00 0.00 0.00 85 1009.7
20260830171532 26 28 0.0 0.0 0.00 0.00 0.00 85 1009.8
20260830171330 26 24 0.0 0.0 0.00 0.00 0.00 86 1009.8
20260830171131 26 13 0.0 0.0 0.00 0.00 0.00 85 1009.9
20260830171121 26 49 0.0 0.0 0.00 0.00 0.00 85 1009.9
20260830170932 26 31 0.0 0.0 0.00 0.00 0.00 86 1009.9
20260830170835 26 30 0.0 0.0 0.00 0.00 0.00 87 1010.0
20260830170635 25 32 0.0 0.0 0.00 0.00 0.00 87 1009.9
20260830170622 25 34 0.0 0.0 0.00 0.00 0.00 86 1010.0
20260830170330 25 51 0.0 0.0 0.00 0.00 0.00 86 1009.9
20260830170122 25 14 0.0 0.0 0.00 0.00 0.00 87 1009.8
20260830165930 25 20 0.0 0.0 0.00 0.00 0.00 86 1009.9
20260830165730 25 49 0.0 0.0 0.00 0.00 0.00 86 1009.7
20260830165603 25 32 0.0 0.0 0.00 0.00 0.00 86 1009.8
20260830165530 25 10 0.0 0.0 0.00 0.00 0.00 86 1009.8
20260830165429 25 28 0.0 0.0 0.00 0.00 0.00 86 1009.7
20260830165228 25 48 0.0 0.0 0.00 0.00 0.00 86 1009.6
20260830165103 25 48 0.0 0.0 0.00 0.00 0.00 86 1009.6
20260830164908 25 25 0.0 0.0 0.00 0.00 0.00 86 1009.7
20260830164704 25 44 0.0 0.0 0.00 0.00 0.00 86 1009.7
20260830164603 25 54 0.0 0.0 0.00 0.00 0.00 86 1009.6
20260830164502 25 307 0.0 0.0 0.00 0.00 0.00 86 1009.6
20260830164302 25 306 0.0 0.0 0.00 0.00 0.00 86 1009.6
20260830164106 25 305 0.0 0.0 0.00 0.00 0.00 86 1009.6
20260830164056 25 305 0.0 0.0 0.00 0.00 0.00 86 1009.6
20260830163902 25 288 0.0 0.0 0.00 0.00 0.00 86 1009.7
20260830163702 25 23 0.0 0.0 0.00 0.00 0.00 85 1009.7
20260830163602 25 171 0.0 0.0 0.00 0.00 0.00 85 1009.8
20260830163553 25 157 0.0 0.0 0.00 0.00 0.00 85 1009.7
20260830163302 25 21 0.0 0.0 0.00 0.00 0.00 86 1009.8
20260830163104 25 32 0.0 0.0 0.00 0.00 0.00 86 1009.7
20260830163053 25 39 0.0 0.0 0.00 0.00 0.00 86 1009.7
20260830162901 25 35 0.0 0.0 0.00 0.00 0.00 86 1009.7
20260830162706 25 32 0.0 0.0 0.00 0.00 0.00 86 1009.6
20260830162602 25 28 0.0 0.0 0.00 0.00 0.00 85 1009.5
20260830162554 25 31 0.0 0.0 0.00 0.00 0.00 85 1009.6
20260830162346 25 0 0.0 0.0 0.00 0.00 0.00 85 1009.5
20260830162334 25 7 0.0 0.0 0.00 0.00 0.00 85 1009.6
20260830161900 25 202 0.0 0.0 0.00 0.00 0.00 85 1009.5
20260830161659 25 28 0.0 0.0 0.00 0.00 0.00 84 1009.4
20260830161549 25 41 0.0 0.0 0.00 0.00 0.00 84 1009.3
20260830161459 25 34 0.0 0.0 0.00 0.00 0.00 84 1009.3
20260830161408 26 52 0.0 0.0 0.00 0.00 0.00 83 1009.1
20260830161345 26 55 0.0 0.0 0.00 0.00 0.00 83 1009.1
20260830161334 25 0 0.0 0.0 0.00 0.00 0.00 84 1009.2
20260830160858 26 37 0.0 0.0 0.00 0.00 0.00 83 1009.1
20260830160754 26 58 0.0 0.0 0.00 0.00 0.00 83 1009.0
20260830160548 26 128 0.0 0.0 0.00 0.00 0.00 82 1009.0
20260830160454 26 14 0.0 0.0 0.00 0.00 0.00 83 1009.0
20260830160408 26 25 0.0 0.0 0.00 0.00 0.00 81 1008.9
20260830160348 26 32 0.0 0.0 0.00 0.00 0.00 82 1009.0
20260830160319 26 1 0.0 0.0 0.00 0.00 0.00 81 1008.9
20260830155854 27 35 0.0 0.0 0.00 0.00 0.00 83 1008.9
20260830155655 27 6 0.0 0.0 0.00 0.00 0.00 83 1008.9
20260830155548 27 28 0.0 0.0 0.00 0.00 0.00 84 1008.9
20260830155448 26 47 0.0 0.0 0.00 0.00 0.00 83 1008.9
20260830155247 26 0 0.0 0.0 0.00 0.00 0.00 83 1008.9
20260830155053 26 47 0.0 0.0 0.00 0.00 0.00 85 1008.9
20260830155048 26 52 0.0 0.0 0.00 0.00 0.00 85 1008.9
20260830154846 26 44 0.0 0.0 0.00 0.00 0.00 86 1009.0
20260830154701 25 42 0.0 0.0 0.00 0.00 0.00 86 1009.0
20260830154646 26 68 0.0 0.0 0.00 0.00 0.00 86 1009.1
20260830154550 25 45 0.0 0.0 0.00 0.00 0.00 86 1009.1
20260830154246 25 1 0.0 0.0 0.00 0.00 0.00 85 1009.0
20260830154049 25 82 0.0 0.0 0.00 0.00 0.00 86 1008.9
20260830153852 25 75 0.0 0.0 0.00 0.00 0.00 87 1008.8
20260830153845 25 13 0.0 0.0 0.00 0.00 0.00 86 1008.8
20260830153819 25 21 0.0 0.0 0.00 0.00 0.00 86 1008.8
20260830153447 25 41 0.0 0.0 0.00 0.00 0.00 86 1008.8
20260830153252 25 38 0.0 0.0 0.00 0.00 0.00 86 1008.7
20260830153247 25 62 0.0 0.0 0.00 0.00 0.00 86 1008.7
20260830153049 25 38 0.0 0.0 0.00 0.00 0.00 86 1008.7
20260830152849 25 35 0.0 0.0 0.00 0.00 0.00 87 1008.7
20260830152841 25 49 0.0 0.0 0.00 0.00 0.00 87 1008.8
20260830152818 25 0 0.0 0.0 0.00 0.00 0.00 87 1008.8
20260830152448 25 65 0.0 0.0 0.00 0.00 0.00 87 1008.8
20260830152247 25 42 0.0 0.0 0.00 0.00 0.00 87 1008.8
20260830152049 25 25 0.0 0.0 0.00 0.00 0.00 87 1008.8
20260830151916 25 16 0.0 0.0 0.00 0.00 0.00 89 1008.8
20260830151848 25 27 0.0 0.0 0.00 0.00 0.00 88 1008.7
20260830151836 25 45 0.0 0.0 0.00 0.00 0.00 89 1008.7
20260830151448 24 39 0.0 0.0 0.00 0.00 0.00 89 1008.7
20260830151347 24 41 0.0 0.0 0.00 0.00 0.00 89 1008.7
20260830151049 24 16 0.0 0.0 0.00 0.00 0.00 89 1008.7
20260830150847 24 73 0.0 0.0 0.00 0.00 0.00 89 1008.8
20260830150647 24 25 0.0 0.0 0.00 0.00 0.00 89 1008.8
20260830150557 24 35 0.0 0.0 0.00 0.00 0.00 90 1008.7
20260830150547 24 6 0.0 0.0 0.00 0.00 0.00 90 1008.8
20260830150247 24 25 0.0 0.0 0.00 0.00 0.00 90 1009.0
20260830150101 24 6 0.0 0.0 0.00 0.00 0.00 90 1009.0
20260830145950 24 358 0.0 0.0 0.00 0.00 0.00 91 1009.1
20260830145647 23 142 0.0 0.0 0.00 0.00 0.00 91 1009.1
20260830145548 23 161 0.0 0.0 0.00 0.00 0.00 91 1009.0
20260830145447 23 216 0.0 0.0 0.00 0.00 0.00 93 1009.0
20260830145247 23 13 0.0 0.0 0.00 0.00 0.00 94 1009.1
20260830145156 23 69 0.0 0.0 0.00 0.00 0.00 94 1008.9
20260830145050 23 69 0.0 0.0 0.00 0.00 0.00 94 1008.9
20260830144847 23 41 0.0 0.0 0.00 0.00 0.00 95 1009.0
20260830144647 23 30 0.0 0.0 0.00 0.00 0.00 95 1009.0
20260830144556 23 30 0.0 0.0 0.00 0.00 0.00 95 1009.0
20260830144547 23 30 0.0 0.0 0.00 0.00 0.00 95 1009.0
20260830144248 22 41 0.0 0.0 0.00 0.00 0.00 95 1009.0
20260830144048 22 41 0.0 0.0 0.00 0.00 0.00 96 1009.0
20260830143848 22 44 0.0 0.0 0.00 0.00 0.00 96 1009.1
20260830143750 22 38 0.0 0.0 0.00 0.00 0.00 96 1009.2
20260830143544 22 35 0.0 0.0 0.00 0.00 0.00 96 1009.2
20260830143449 22 35 0.0 0.0 0.00 0.00 0.00 96 1009.2
20260830143247 22 35 0.0 0.0 0.00 0.00 0.00 96 1009.0
20260830143039 22 35 0.0 0.0 0.00 0.00 0.00 96 1008.9
20260830142847 22 34 0.0 0.0 0.00 0.00 0.00 96 1008.8
20260830142747 22 56 0.0 0.0 0.00 0.00 0.00 96 1008.9
20260830142538 22 45 0.0 0.0 0.00 0.00 0.00 96 1008.9
20260830142449 21 55 0.0 0.0 0.00 0.00 0.00 96 1008.9
20260830142424 21 55 0.0 3.2 0.00 0.00 0.00 96 1008.8
20260830142330 21 48 0.0 4.8 0.00 0.00 0.00 96 1008.9
20260830142305 21 49 0.0 4.8 0.00 0.00 0.00 96 1008.9
20260830141847 21 48 0.0 8.0 0.00 0.00 0.00 96 1009.0
20260830141649 21 49 0.0 8.0 0.00 0.00 0.00 96 1009.1
20260830141535 21 42 0.0 8.0 0.00 0.00 0.00 96 1009.1
20260830141447 21 38 0.0 8.0 0.00 0.00 0.00 96 1009.1
20260830141431 21 39 0.0 8.0 0.00 0.00 0.00 96 1009.2
20260830141336 21 8 0.0 9.7 0.00 0.00 0.00 96 1009.1
20260830141300 21 41 0.0 9.7 0.00 0.00 0.00 96 1009.2
20260830140945 21 30 0.0 9.7 0.00 0.00 0.00 96 1009.2
20260830140648 21 30 0.0 9.7 0.00 0.00 0.00 96 1009.2
20260830140534 21 30 0.0 9.7 0.00 0.00 0.00 96 1009.2
20260830140438 21 56 0.0 9.7 0.00 0.00 0.00 96 1009.2
20260830140335 21 51 0.0 6.4 0.00 0.00 0.00 96 1009.4
20260830140321 21 45 0.0 6.4 0.00 0.00 0.00 96 1009.3
20260830140255 21 47 0.0 6.4 0.00 0.00 0.00 96 1009.4
20260830135939 21 56 0.0 6.4 0.00 0.00 0.00 96 1009.3
20260830135638 21 56 0.0 6.4 0.00 0.00 0.00 97 1009.3
20260830135537 21 54 0.0 4.8 0.00 0.00 0.00 97 1009.3
20260830135431 21 44 0.0 4.8 0.00 0.00 0.00 97 1009.3
20260830135341 21 42 0.0 4.8 0.00 0.00 0.00 97 1009.3
20260830135318 21 44 0.0 4.8 0.00 0.00 0.00 97 1009.3
20260830135250 21 42 0.0 4.8 0.00 0.00 0.00 97 1009.3
20260830134708 -17 0.0 0.0 0.00 0.00 0.00
20260830134632 -17 0.0 0.0 0.00 0.00 0.00
20260830134532 -17 0.0 0.0 0.00 0.00 0.00
20260830134344 -17 0.0 0.0 0.00 0.00 0.00
20260830134339 -17 0.0 0.0 0.00 0.00 0.00
20260830134327 -17 0.0 0.0 0.00 0.00 0.00
20260830133834 -17 0.0 0.0 0.00 0.00 0.00
20260830133610 -17 0.0 0.0 0.00 0.00 0.00 1009.5
20260830133407 -17 0.0 0.0 0.00 0.00 0.00 1009.5
20260830133348 21 41 0.0 0.0 0.00 0.00 0.00 97 1009.5
20260830133343 21 41 0.0 0.0 0.00 0.00 0.00 97 1009.5
20260830133329 21 41 0.0 0.0 0.00 0.00 0.00 97 1009.5
20260830132801 21 41 0.0 0.0 0.00 0.00 0.00 97 1009.5
20260830132706 21 41 0.0 0.0 0.00 0.00 0.00 97 1009.5
20260830132601 21 41 0.0 0.0 0.00 0.00 0.00 97 1009.5
20260830132401 21 41 0.0 0.0 0.00 0.00 0.00 97 1009.4
20260830132346 21 38 0.0 0.0 0.00 0.00 0.00 97 1009.3
20260830132326 21 41 0.0 0.0 0.00 0.00 0.00 97 1009.3
20260830132001 21 39 0.0 0.0 0.00 0.00 0.00 97 1009.4
20260830131759 21 41 0.0 0.0 0.00 0.00 0.00 97 1009.2
20260830131559 20 41 0.0 0.0 0.00 0.00 0.00 97 1009.2
20260830131359 20 39 0.0 0.0 0.00 0.00 0.00 97 1009.1
20260830131345 20 38 0.0 0.0 0.00 0.00 0.00 97 1009.1
20260830131325 20 38 0.0 0.0 0.00 0.00 0.00 97 1009.1
20260830131004 20 47 0.0 0.0 0.00 0.00 0.00 97 1009.1
20260830130902 20 49 0.0 0.0 0.00 0.00 0.00 97 1009.1
20260830130602 20 62 0.0 0.0 0.00 0.00 0.00 97 1009.1
20260830130506 20 39 0.0 0.0 0.00 0.00 0.00 97 1009.0
20260830130349 20 42 0.0 0.0 0.00 0.00 0.00 97 1009.1
20260830130325 20 45 0.0 0.0 0.00 0.00 0.00 97 1009.0
20260830130005 20 31 0.0 0.0 0.00 0.00 0.00 97 1009.1
20260830125801 20 28 0.0 0.0 0.00 0.00 0.00 97 1009.1
20260830125604 20 28 0.0 0.0 0.00 0.00 0.00 97 1009.2
20260830125505 20 30 0.0 0.0 0.00 0.00 0.00 97 1009.2
20260830125350 20 37 0.0 0.0 0.00 0.00 0.00 97 1009.1
20260830125345 20 38 0.0 0.0 0.00 0.00 0.00 97 1009.0
20260830125325 20 38 0.0 0.0 0.00 0.00 0.00 97 1009.1
20260830124802 20 38 0.0 0.0 0.00 0.00 0.00 97 1009.0
20260830124602 20 38 0.0 0.0 0.00 0.00 0.00 97 1009.1
20260830124403 20 37 0.0 0.0 0.00 0.00 0.00 97 1009.0
20260830124349 20 35 0.0 0.0 0.00 0.00 0.00 97 1009.0
20260830124344 20 34 0.0 0.0 0.00 0.00 0.00 97 1009.0
20260830124325 20 31 0.0 0.0 0.00 0.00 0.00 97 1009.0
20260830123803 20 23 0.0 0.0 0.00 0.00 0.00 97 1008.9
20260830123705 20 44 0.0 0.0 0.00 0.00 0.00 97 1008.8
20260830123602 20 44 0.0 0.0 0.00 0.00 0.00 97 1008.8
20260830123402 20 48 0.0 0.0 0.00 0.00 0.00 97 1008.8
20260830123351 20 49 0.0 3.2 0.00 0.00 0.00 97 1008.8
20260830123326 20 48 0.0 3.2 0.00 0.00 0.00 97 1008.9
20260830123004 20 48 0.0 3.2 0.00 0.00 0.00 97 1008.7
20260830122802 20 38 0.0 3.2 0.00 0.00 0.00 97 1008.8
20260830122705 20 39 0.0 3.2 0.00 0.00 0.00 97 1008.9
20260830122602 20 39 0.0 3.2 0.00 0.00 0.00 97 1008.9
20260830122402 20 38 0.0 3.2 0.00 0.00 0.00 97 1009.0
20260830122351 20 38 0.0 3.2 0.00 0.00 0.00 97 1009.1
20260830122327 20 38 0.0 3.2 0.00 0.00 0.00 97 1009.1
20260830122005 20 38 0.0 1.6 0.00 0.00 0.00 97 1009.1
20260830121904 20 37 0.0 1.6 0.00 0.00 0.00 97 1009.0
20260830121602 20 38 0.0 1.6 0.00 0.00 0.00 97 1009.0
20260830121426 20 38 0.0 3.2 0.00 0.00 0.00 96 1009.0
20260830121404 20 38 0.0 3.2 0.00 0.00 0.00 97 1008.9
20260830121343 20 39 0.0 3.2 0.00 0.00 0.00 97 1009.0
20260830121003 20 38 0.0 3.2 0.00 0.00 0.00 96 1008.9
20260830120802 20 38 0.0 4.8 0.00 0.00 0.00 97 1008.9
20260830120602 20 39 0.0 4.8 0.00 0.00 0.00 96 1008.8
20260830120507 20 38 0.0 4.8 0.00 0.00 0.00 96 1008.7
20260830120350 20 37 0.0 4.8 0.00 0.00 0.00 97 1008.7
20260830120327 20 38 0.0 4.8 0.00 0.00 0.00 97 1008.8
20260830120004 20 38 0.0 4.8 0.00 0.00 0.00 97 1008.8
20260830115905 20 34 0.0 4.8 0.00 0.00 0.00 97 1008.9
20260830115604 20 30 0.0 4.8 0.00 0.00 0.00 97 1008.8
20260830115401 20 23 0.0 3.2 0.00 0.00 0.00 97 1008.8
20260830115350 20 31 0.0 4.8 0.00 0.00 0.00 96 1008.7
20260830115327 20 31 0.0 4.8 0.00 0.00 0.00 96 1008.6
20260830115004 20 31 0.0 4.8 0.00 0.00 0.00 96 1008.7
20260830114801 20 31 0.0 4.8 0.00 0.00 0.00 96 1008.8
20260830114601 20 31 0.0 4.8 0.00 0.00 0.00 96 1008.8
20260830114424 19 27 0.0 1.6 0.00 0.00 0.00 96 1008.8
20260830114402 19 28 0.0 4.8 0.00 0.00 0.00 96 1008.8
20260830114343 19 27 0.0 1.6 0.00 0.00 0.00 96 1008.9
20260830114004 19 28 0.0 1.6 0.00 0.03 0.00 96 1008.9
20260830113856 19 28 0.0 0.0 0.00 0.03 0.00 96 1008.9
20260830113602 19 28 0.0 0.0 0.00 0.03 0.00 96 1009.0
20260830113402 19 28 0.0 1.6 0.00 0.05 0.00 96 1009.0
20260830113203 19 27 0.0 3.2 0.00 0.08 0.00 96 1008.8
20260830113100 19 28 0.0 3.2 0.00 0.08 0.00 96 1008.7
20260830113005 19 28 0.0 3.2 0.00 0.10 0.00 96 1008.7
20260830112902 19 28 0.0 3.2 0.00 0.10 0.00 96 1008.7
20260830112602 19 27 0.0 3.2 0.00 0.13 0.00 96 1008.7
20260830112506 19 27 0.0 3.2 0.00 0.15 0.00 96 1008.7
20260830112204 19 28 0.0 1.6 0.00 0.15 0.00 96 1008.7
20260830112102 19 28 0.0 1.6 0.00 0.15 0.00 96 1008.7
20260830112003 19 27 0.0 1.6 0.00 0.15 0.00 96 1008.7
20260830111802 19 28 0.0 0.0 0.00 0.18 0.00 96 1008.8
20260830111602 19 28 0.0 0.0 0.00 0.18 0.00 96 1008.8
20260830111507 19 27 0.0 0.0 0.00 0.20 0.00 96 1008.9
20260830111203 19 30 0.0 0.0 0.00 0.20 0.00 96 1008.9
20260830111100 19 28 0.0 0.0 0.00 0.20 0.00 96 1008.9
20260830111005 19 28 0.0 0.0 0.00 0.20 0.00 96 1008.9
20260830110802 19 28 0.0 0.0 0.00 0.20 0.00 96 1008.9
20260830110602 19 28 0.0 0.0 0.00 0.23 0.00 96 1008.9
20260830110402 19 28 0.0 0.0 0.00 0.23 0.00 96 1008.9
20260830110302 19 28 0.0 0.0 0.00 0.23 0.00 96 1008.8
20260830110118 19 28 0.0 0.0 0.00 0.25 0.00 96 1008.7
20260830110101 19 28 0.0 0.0 0.00 0.25 0.00 96 1008.7
20260830105802 19 28 0.0 3.2 0.00 0.28 0.00 96 1008.8
20260830105601 19 28 0.0 3.2 0.00 0.28 0.00 96 1008.9
20260830105402 19 27 0.0 3.2 0.00 0.30 0.00 95 1009.0
20260830105203 20 28 0.0 3.2 0.00 0.33 0.00 96 1009.0
20260830105101 20 28 0.0 3.2 0.00 0.33 0.00 96 1008.9
20260830105003 20 28 0.0 3.2 0.00 0.33 0.00 96 1008.9
20260830104902 20 28 0.0 3.2 0.00 0.33 0.00 96 1008.9
20260830104702 20 27 0.0 3.2 0.00 0.36 0.00 96 1008.9
20260830104601 20 27 0.0 3.2 0.00 0.36 0.00 96 1008.9
20260830104402 20 28 0.0 3.2 0.00 0.36 0.00 96 1008.9
20260830104203 20 27 0.0 3.2 0.00 0.36 0.00 96 1008.9
20260830104101 20 27 0.0 3.2 0.00 0.36 0.00 96 1009.0
20260830104004 20 28 0.0 4.8 0.00 0.36 0.00 96 1009.0
20260830103804 19 28 0.0 4.8 0.00 0.38 0.00 95 1009.0
20260830103602 19 27 0.0 4.8 0.00 0.38 0.00 95 1008.9
20260830103504 19 42 0.0 4.8 0.00 0.38 0.00 95 1008.9
20260830103305 19 42 0.0 4.8 0.00 0.41 0.00 95 1009.0
20260830103100 19 41 0.0 4.8 0.00 0.41 0.00 95 1008.9
20260830103004 19 38 0.0 3.2 0.00 0.41 0.00 95 1009.0
20260830102803 19 41 0.0 0.0 0.00 0.43 0.00 95 1009.0
20260830102601 19 41 0.0 0.0 0.00 0.43 0.00 95 1009.0
20260830102402 19 42 0.0 0.0 0.00 0.43 0.00 95 1009.1
20260830102205 19 41 0.0 0.0 0.00 0.46 0.00 95 1009.1
20260830102106 20 41 0.0 1.6 0.00 0.48 0.00 95 1009.1
20260830102101 19 39 0.0 0.0 0.00 0.46 0.00 95 1009.1
20260830101801 20 41 0.0 1.6 0.00 0.48 0.00 95 1009.1
20260830101708 20 41 0.0 1.6 0.00 0.51 0.00 95 1009.2
20260830101601 20 41 0.0 1.6 0.00 0.51 0.00 95 1009.2
20260830101406 20 41 0.0 1.6 0.00 0.51 0.00 95 1009.1
20260830101203 20 39 0.0 1.6 0.00 0.53 0.00 95 1009.1
20260830101100 20 42 0.0 1.6 0.00 0.56 0.00 95 1009.1
20260830101003 20 39 0.0 0.0 0.00 0.56 0.00 95 1009.2
20260830100801 20 42 0.0 0.0 0.00 0.56 0.00 95 1009.1
20260830100705 20 41 0.0 0.0 0.00 0.58 0.00 95 1009.1
20260830100602 20 41 0.0 0.0 0.00 0.58 0.00 95 1009.1
20260830100402 20 39 0.0 0.0 0.00 0.58 0.00 95 1009.2
20260830100306 20 41 0.0 0.0 0.00 0.61 0.00 95 1009.1
20260830100005 20 39 0.0 0.0 0.00 0.64 0.00 95 1009.1
20260830095802 20 41 0.0 0.0 0.00 0.64 0.00 95 1009.1
20260830095601 20 41 0.0 1.6 0.00 0.66 0.00 95 1009.1
20260830095404 20 39 0.0 1.6 0.00 0.66 0.00 95 1009.1
20260830095305 20 39 0.0 1.6 0.00 0.66 0.00 95 1009.1
20260830095101 20 41 0.0 1.6 0.00 0.69 0.00 95 1009.1
20260830095001 20 41 0.0 1.6 0.00 0.69 0.00 95 1009.1
20260830094902 20 41 0.0 1.6 0.00 0.69 0.00 95 1008.9
20260830094602 20 41 0.0 1.6 0.00 0.71 0.00 95 1008.8
20260830094504 20 41 0.0 0.0 0.00 0.71 0.00 95 1008.9
20260830094203 20 41 0.0 0.0 0.00 0.71 0.00 95 1008.8
20260830094101 20 42 0.0 0.0 0.00 0.71 0.00 95 1008.8
20260830094002 20 41 0.0 0.0 0.00 0.74 0.00 95 1008.8
20260830093803 20 41 0.0 1.6 0.00 0.74 0.00 95 1008.7
20260830093604 20 39 0.0 1.6 0.00 0.74 0.00 95 1008.7
20260830093506 20 39 0.0 1.6 0.00 0.76 0.00 95 1008.8
20260830093139 20 39 0.0 1.6 0.00 0.76 0.00 95 1008.8
20260830093042 20 41 0.0 1.6 0.00 0.76 0.00 95 1008.8
20260830093035 20 42 0.0 3.2 0.00 0.79 0.00 95 1008.8
20260830092738 20 41 0.0 3.2 0.00 0.79 0.00 95 1008.8
20260830092544 20 39 0.0 3.2 0.00 0.81 0.00 95 1008.8
20260830092540 20 41 0.0 3.2 0.00 0.81 0.00 95 1008.8
20260830092338 20 41 0.0 3.2 0.00 0.81 0.00 95 1008.8
20260830092137 20 41 0.0 3.2 0.00 0.84 0.00 95 1008.8
20260830092043 20 39 0.0 3.2 0.00 0.84 0.00 95 1008.7
20260830092037 20 41 0.0 3.2 0.00 0.84 0.00 95 1008.7
20260830091736 20 39 0.0 3.2 0.00 0.84 0.00 95 1008.6
20260830091637 20 39 0.0 3.2 0.00 0.86 0.00 95 1008.6
20260830091539 20 39 0.0 3.2 0.00 0.86 0.00 95 1008.6
20260830091333 20 41 0.0 3.2 0.00 0.86 0.00 95 1008.6
20260830091129 20 39 0.0 3.2 0.00 0.86 0.00 95 1008.7
20260830091039 20 39 0.0 3.2 0.00 0.86 0.00 95 1008.8
20260830090932 20 41 0.0 3.2 0.00 0.86 0.00 95 1008.8
20260830090730 20 39 0.0 3.2 0.00 0.86 0.00 95 1009.0
20260830090628 20 38 0.0 1.6 0.00 0.89 0.00 95 1009.0
20260830090539 20 39 0.0 1.6 0.00 0.89 0.00 95 1009.0
20260830090330 20 38 0.0 3.2 0.00 0.89 0.00 94 1009.0
20260830090131 20 39 0.0 3.2 0.00 0.89 0.00 94 1008.9
20260830090037 20 39 0.0 3.2 0.00 0.89 0.00 94 1008.9
20260830085932 20 38 0.0 3.2 0.00 0.89 0.00 94 1008.9
20260830085828 20 39 0.0 3.2 0.00 0.89 0.00 94 1008.9
20260830085626 20 41 0.0 3.2 0.00 0.89 0.00 94 1009.0
20260830085538 20 38 0.0 3.2 0.00 0.89 0.00 94 1009.0
20260830085326 20 38 0.0 3.2 0.00 0.89 0.00 94 1009.1
20260830085125 20 39 0.0 3.2 0.00 0.91 0.00 95 1009.0
20260830085038 20 38 0.0 3.2 0.00 0.91 0.00 95 1009.0
20260830084925 20 39 0.0 3.2 0.00 0.91 0.00 95 1009.1
20260830084832 20 38 0.0 3.2 0.00 0.91 0.00 94 1009.0
20260830084814 20 39 0.0 3.2 0.00 0.91 0.00 94 1009.1
20260830084526 20 38 0.0 3.2 0.00 0.91 0.00 94 1009.0
20260830084428 20 38 0.0 3.2 0.00 0.91 0.00 94 1009.0
20260830084222 20 39 0.0 1.6 0.00 0.94 0.00 94 1009.0
20260830084035 20 41 0.0 1.6 0.00 0.94 0.00 94 1009.0
20260830083921 20 39 0.0 1.6 0.00 0.94 0.00 94 1009.0
20260830083719 20 39 0.0 1.6 0.00 0.94 0.00 94 1009.0
20260830083520 20 38 0.0 1.6 0.00 0.94 0.00 94 1008.9
20260830083318 20 38 0.0 0.0 0.00 0.94 0.00 94 1008.9
20260830083119 20 37 0.0 0.0 0.00 0.94 0.00 94 1008.9
20260830083034 20 38 0.0 0.0 0.00 0.94 0.00 94 1009.0
20260830083016 20 38 0.0 0.0 0.00 0.94 0.00 94 1009.0
20260830082819 20 38 0.0 0.0 0.00 0.94 0.00 94 1009.1
20260830082534 20 37 0.0 0.0 0.00 0.94 0.00 94 1009.1
20260830082517 20 38 0.0 0.0 0.00 0.94 0.00 94 1009.1
20260830082316 20 38 0.0 0.0 0.00 0.94 0.00 94 1009.1
20260830082208 20 37 0.0 0.0 0.00 0.94 0.00 94 1009.2
20260830082034 20 39 0.0 0.0 0.00 0.94 0.00 94 1009.1
20260830081907 20 38 0.0 0.0 0.00 0.94 0.00 94 1009.0
20260830081704 20 38 0.0 0.0 0.00 0.94 0.00 94 1009.0
20260830081505 20 38 0.0 0.0 0.00 0.94 0.00 94 1009.0
20260830081304 20 37 0.0 0.0 0.00 0.94 0.00 94 1008.9
20260830081201 20 39 0.0 0.0 0.00 0.94 0.00 94 1009.0
20260830081031 20 38 0.0 0.0 0.00 0.94 0.00 94 1009.0
20260830080903 20 38 0.0 0.0 0.00 0.94 0.00 94 1009.0
20260830080759 20 39 0.0 1.6 0.00 0.94 0.00 94 1009.1
20260830080504 20 38 0.0 1.6 0.00 0.94 0.00 94 1009.1
20260830080329 21 38 0.0 3.2 0.00 0.94 0.00 94 1008.9
20260830080322 21 38 0.0 3.2 0.00 0.94 0.00 94 1009.0
20260830080249 21 38 0.0 3.2 0.00 0.94 0.00 94 1009.0
20260830075901 21 39 0.0 3.2 0.00 0.94 0.00 94 1009.0
20260830075756 20 38 0.0 3.2 0.00 0.94 0.00 94 1009.0
20260830075534 20 38 0.0 3.2 0.00 0.94 0.00 94 1008.8
20260830075458 20 38 0.0 3.2 0.00 0.94 0.00 94 1008.8
20260830075420 20 38 0.0 3.2 0.00 0.94 0.00 94 1008.8
20260830075320 21 38 0.0 3.2 0.00 0.94 0.00 94 1008.8
20260830075245 21 38 0.0 3.2 0.00 0.94 0.00 94 1008.9
20260830074857 21 38 0.0 3.2 0.00 0.94 0.00 94 1009.0
20260830074656 21 37 0.0 3.2 0.00 0.94 0.00 94 1009.0
20260830074529 20 38 0.0 1.6 0.00 0.94 0.00 94 1008.9
20260830074456 21 38 0.0 1.6 0.00 0.94 0.00 93 1008.9
20260830074326 21 37 0.0 1.6 0.00 0.94 0.00 93 1009.1
20260830074317 21 38 0.0 1.6 0.00 0.94 0.00 93 1009.0
20260830074244 20 38 0.0 1.6 0.00 0.94 0.00 93 1009.1
20260830073900 21 38 0.0 0.0 0.00 0.94 0.00 93 1009.2
20260830073854 21 39 0.0 0.0 0.00 0.94 0.00 93 1009.2
20260830073530 21 38 0.0 0.0 0.00 0.94 0.00 93 1009.1
20260830073454 21 38 0.0 0.0 0.00 0.94 0.00 93 1009.2
20260830073254 21 37 0.0 1.6 0.00 0.94 0.00 93 1009.2
20260830073053 21 39 0.0 1.6 0.00 0.94 0.00 93 1009.2
20260830073029 21 38 0.0 1.6 0.00 0.94 0.00 93 1009.2
20260830072852 21 38 0.0 1.6 0.00 0.94 0.00 93 1009.2
20260830072651 21 38 0.0 1.6 0.00 0.94 0.00 93 1009.1
20260830072526 21 39 0.0 1.6 0.00 0.94 0.00 93 1009.1
20260830072456 21 38 0.0 0.0 0.00 0.94 0.00 93 1009.1
20260830072450 21 37 0.0 1.6 0.00 0.94 0.00 93 1009.1
20260830072052 21 39 0.0 0.0 0.00 0.94 0.00 93 1009.1
20260830072025 21 38 0.0 0.0 0.00 0.94 0.00 93 1009.1
20260830071850 21 38 0.0 0.0 0.00 0.94 0.00 93 1009.2
20260830071650 21 38 0.0 0.0 0.00 0.94 0.00 93 1009.3
20260830071524 21 37 0.0 0.0 0.00 0.94 0.00 93 1009.3
20260830071448 21 39 0.0 0.0 0.00 0.94 0.00 93 1009.3
20260830071248 21 38 0.0 0.0 0.00 0.94 0.00 93 1009.3
20260830071043 21 38 0.0 0.0 0.00 0.94 0.00 93 1009.3
20260830071022 21 38 0.0 0.0 0.00 0.94 0.00 93 1009.4
20260830070646 21 38 0.0 0.0 0.00 0.94 0.00 92 1009.4
20260830070522 21 37 0.0 3.2 0.00 0.94 0.00 92 1009.4
20260830070444 21 38 0.0 3.2 0.00 0.94 0.00 92 1009.4
20260830070241 21 38 0.0 3.2 0.00 0.94 0.00 92 1009.4
20260830070041 21 39 0.0 3.2 0.00 0.94 0.00 93 1009.4
20260830070024 21 38 0.0 3.2 0.00 0.94 0.00 93 1009.4
20260830065943 21 39 0.0 3.2 0.00 0.94 0.00 93 1009.4
20260830065641 21 38 0.0 3.2 0.00 0.94 0.00 92 1009.4
20260830065537 21 39 0.0 3.2 0.00 0.94 0.00 92 1009.3
20260830065522 21 38 0.0 3.2 0.00 0.94 0.00 92 1009.3
20260830065240 21 38 0.0 3.2 0.00 0.94 0.00 92 1009.4
20260830065038 21 39 0.0 3.2 0.00 0.94 0.00 92 1009.3
20260830065021 21 38 0.0 3.2 0.00 0.94 0.00 92 1009.3
20260830064838 21 38 0.0 3.2 0.00 0.94 0.00 92 1009.3
20260830064635 21 38 0.0 3.2 0.00 0.94 0.00 92 1009.2
20260830064533 21 38 0.0 1.6 0.00 0.94 0.00 92 1009.4
20260830064512 21 37 0.0 1.6 0.00 0.94 0.00 92 1009.2
20260830064234 21 38 0.0 1.6 0.00 0.94 0.00 92 1009.3
20260830064133 21 39 0.0 1.6 0.00 0.94 0.00 92 1009.3
20260830064011 21 37 0.0 1.6 0.00 0.94 0.00 92 1009.3
20260830063833 21 37 0.0 1.6 0.00 0.94 0.00 92 1009.3
20260830063803 21 37 0.0 1.6 0.00 0.94 0.00 92 1009.2
20260830063743 21 38 0.0 1.6 0.00 0.94 0.00 92 1009.2
20260830063433 21 35 0.0 0.0 0.00 0.94 0.00 92 1009.2
20260830063231 21 35 0.0 0.0 0.00 0.94 0.00 92 1009.2
20260830063131 21 35 0.0 0.0 0.00 0.94 0.00 92 1009.3
20260830063009 21 35 0.0 0.0 0.00 0.94 0.00 92 1009.3
20260830062839 21 38 0.0 0.0 0.00 0.94 0.00 92 1009.3
20260830062830 21 35 0.0 0.0 0.00 0.94 0.00 92 1009.2
20260830062756 21 37 0.0 0.0 0.00 0.94 0.00 92 1009.4
20260830062433 21 38 0.0 0.0 0.00 0.97 0.00 92 1009.3
20260830062233 21 44 0.0 0.0 0.00 0.99 0.00 92 1009.3
20260830062032 21 44 0.0 0.0 0.00 0.99 0.00 92 1009.3
20260830062009 21 42 0.0 0.0 0.00 0.99 0.00 92 1009.3
20260830061839 21 42 0.0 0.0 0.00 0.99 0.00 92 1009.4
20260830061833 21 42 0.0 0.0 0.00 0.99 0.00 92 1009.4
20260830061749 21 42 0.0 0.0 0.00 0.99 0.00 92 1009.5
20260830061428 21 44 0.0 0.0 0.00 0.99 0.00 91 1009.4
20260830061326 21 44 0.0 0.0 0.00 0.99 0.00 91 1009.5
20260830061007 21 44 0.0 0.0 0.00 0.99 0.00 91 1009.6
20260830060810 21 42 0.0 0.0 0.00 0.99 0.00 91 1009.6
20260830060609 21 45 0.0 0.0 0.00 0.99 0.00 91 1009.6
20260830060506 21 44 0.0 0.0 0.00 0.99 0.00 91 1009.7
20260830060409 21 44 0.0 0.0 0.00 0.99 0.00 91 1009.7
20260830060350 21 44 0.0 0.0 0.00 0.99 0.00 91 1009.8
20260830060302 21 42 0.0 0.0 0.00 0.99 0.00 91 1009.9
20260830060217 21 42 0.0 0.0 0.00 0.99 0.00 91 1009.9
20260830055902 21 44 0.0 0.0 0.00 0.99 0.00 91 1010.0
20260830055604 21 45 0.0 0.0 0.00 0.99 0.00 91 1009.9
20260830055505 21 44 0.0 0.0 0.00 0.99 0.00 91 1010.0
20260830055405 21 44 0.0 0.0 0.00 0.99 0.00 91 1009.8
20260830055306 21 44 0.0 0.0 0.00 0.99 0.00 91 1009.9
20260830055249 21 44 0.0 0.0 0.00 0.99 0.00 91 1009.9
20260830055215 21 44 0.0 0.0 0.00 0.99 0.00 91 1009.9
20260830054903 21 44 0.0 0.0 0.00 0.99 0.00 91 1009.9
20260830054607 21 44 0.0 0.0 0.00 0.99 0.00 91 1009.9
20260830054508 21 44 0.0 0.0 0.00 0.99 0.00 91 1009.9
20260830054502 21 44 0.0 0.0 0.00 0.99 0.00 91 1009.9
20260830054347 21 44 0.0 0.0 0.00 0.99 0.00 91 1009.9
20260830054254 21 44 0.0 0.0 0.00 0.99 0.00 91 1009.9
20260830054002 21 42 0.0 0.0 0.00 0.99 0.00 91 1009.9
20260830053802 21 44 0.0 0.0 0.00 0.99 0.00 91 1009.9
20260830053602 21 44 0.0 0.0 0.00 0.99 0.00 91 1009.9
20260830053506 21 45 0.0 0.0 0.00 0.99 0.00 90 1009.9
20260830053502 21 44 0.0 0.0 0.00 0.99 0.00 91 1009.9
20260830053255 21 45 0.0 0.0 0.00 0.99 0.00 90 1009.9
20260830053242 21 44 0.0 0.0 0.00 0.99 0.00 90 1009.9
20260830052958 21 45 0.0 0.0 0.00 0.99 0.00 90 1009.9
20260830052856 21 45 0.0 0.0 0.00 0.99 0.00 90 1009.9
20260830052559 21 47 0.0 0.0 0.00 0.99 0.00 90 1009.9
20260830052500 21 44 0.0 0.0 0.00 0.99 0.00 90 1009.9
20260830052351 21 45 0.0 0.0 0.00 0.99 0.00 90 1009.9
20260830052154 21 45 0.0 0.0 0.00 0.99 0.00 90 1009.9
20260830052052 21 45 0.0 0.0 0.00 0.99 0.00 90 1009.9
20260830052000 21 44 0.0 0.0 0.00 0.99 0.00 90 1009.9
20260830051804 21 45 0.0 0.0 0.00 0.99 0.00 90 1009.9
20260830051755 21 45 0.0 0.0 0.00 0.99 0.00 90 1009.9
20260830051726 21 44 0.0 0.0 0.00 0.99 0.00 90 1009.9
20260830051444 21 45 0.0 0.0 0.00 0.99 0.00 90 1009.9
20260830051141 21 45 0.0 0.0 0.00 0.99 0.00 90 1010.0
20260830050940 21 44 0.0 0.0 0.00 0.99 0.00 90 1010.0
20260830050825 21 44 0.0 0.0 0.00 0.99 0.00 90 1009.9
20260830050758 21 45 0.0 0.0 0.00 0.99 0.00 90 1009.9
20260830050752 21 44 0.0 0.0 0.00 0.99 0.00 90 1010.0
20260830050337 21 42 0.0 0.0 0.00 0.99 0.00 90 1009.8
20260830050238 21 42 0.0 0.0 0.00 0.99 0.00 90 1009.9
20260830050002 21 42 0.0 0.0 0.00 0.99 0.99 90 1009.9
20260830045936 21 42 0.0 0.0 0.00 0.99 0.99 90 1010.0
20260830045803 21 41 0.0 0.0 0.00 0.99 0.99 89 1009.9
20260830045754 21 42 0.0 0.0 0.00 0.99 0.99 90 1009.9
20260830045722 21 42 0.0 0.0 0.00 0.99 0.99 89 1009.9
20260830045334 21 41 0.0 0.0 0.00 0.99 0.99 89 1010.0
20260830045229 21 42 0.0 0.0 0.00 0.99 0.99 89 1010.0
20260830044958 21 41 0.0 0.0 0.00 0.99 0.99 89 1010.0
20260830044931 21 41 0.0 0.0 0.00 0.99 0.99 89 1009.9
20260830044834 21 42 0.0 0.0 0.00 0.99 0.99 89 1010.0
20260830044530 21 42 0.0 0.0 0.00 0.99 0.99 89 1010.1
20260830044500 21 41 0.0 0.0 0.00 0.99 0.99 89 1010.1
20260830044330 21 42 0.0 0.0 0.00 0.99 0.99 89 1010.1
20260830044130 21 42 0.0 0.0 0.00 0.99 0.99 89 1010.1
20260830044000 21 42 0.0 0.0 0.00 0.99 0.99 89 1010.1
20260830043930 21 42 0.0 0.0 0.00 0.99 0.99 89 1010.1
20260830043832 21 41 0.0 0.0 0.00 0.99 0.99 89 1010.0
20260830043529 22 42 0.0 0.0 0.00 0.99 0.99 89 1010.1
20260830043500 22 42 0.0 0.0 0.00 0.99 0.99 89 1010.1
20260830043430 22 42 0.0 0.0 0.00 0.99 0.99 88 1010.1
20260830043131 22 38 0.0 0.0 0.00 0.99 0.99 88 1010.1
20260830043000 22 39 0.0 0.0 0.00 0.99 0.99 88 1010.1
20260830042930 22 39 0.0 0.0 0.00 0.99 0.99 88 1010.1
20260830042730 22 38 0.0 0.0 0.00 0.99 0.99 88 1010.1
20260830042531 22 39 0.0 0.0 0.00 0.99 0.99 88 1010.2
20260830042459 22 39 0.0 0.0 0.00 0.99 0.99 88 1010.1
20260830042432 22 39 0.0 0.0 0.00 0.99 0.99 88 1010.2
20260830042116 22 38 0.0 0.0 0.00 0.99 0.99 88 1010.3
20260830042016 22 38 0.0 0.0 0.00 0.99 0.99 88 1010.3
20260830042000 22 39 0.0 0.0 0.00 0.99 0.99 88 1010.3
20260830041842 22 39 0.0 0.0 0.00 0.99 0.99 88 1010.3
20260830041750 22 38 0.0 0.0 0.00 0.99 0.99 88 1010.3
20260830041716 22 38 0.0 0.0 0.00 0.99 0.99 88 1010.3
20260830041310 22 39 0.0 0.0 0.00 0.99 0.99 87 1010.2
20260830041107 22 37 0.0 0.0 0.00 0.99 0.99 87 1010.2
20260830041003 22 38 0.0 0.0 0.00 0.99 0.99 87 1010.3
20260830040907 22 38 0.0 0.0 0.00 0.99 0.99 87 1010.3
20260830040707 22 37 0.0 0.0 0.00 0.99 0.99 87 1010.3
20260830040604 22 37 0.0 0.0 0.00 0.99 0.99 87 1010.4
20260830040458 22 38 0.0 0.0 0.00 0.99 0.99 87 1010.4
20260830040402 22 38 0.0 0.0 0.00 0.99 0.99 87 1010.4
20260830040244 22 38 0.0 0.0 0.00 0.99 0.99 87 1010.5
20260830040227 22 37 0.0 0.0 0.00 0.99 0.99 87 1010.4
20260830035905 22 38 0.0 0.0 0.00 0.99 0.99 87 1010.4
20260830035704 22 38 0.0 0.0 0.00 0.99 0.99 86 1010.4
20260830035506 22 39 0.0 0.0 0.00 0.99 0.99 86 1010.4
20260830035458 22 37 0.0 0.0 0.00 0.99 0.99 86 1010.4
20260830035348 22 37 0.0 0.0 0.00 0.99 0.99 86 1010.4
20260830035306 22 37 0.0 0.0 0.00 0.99 0.99 86 1010.4
20260830035248 22 38 0.0 0.0 0.00 0.99 0.99 86 1010.5
20260830035229 22 37 0.0 0.0 0.00 0.99 0.99 86 1010.4
20260830034705 22 38 0.0 0.0 0.00 0.99 0.99 86 1010.5
20260830034508 22 37 0.0 0.0 0.00 0.99 0.99 86 1010.5
20260830034458 22 37 0.0 0.0 0.00 0.99 0.99 86 1010.5
20260830034305 22 37 0.0 0.0 0.00 0.99 0.99 86 1010.5
20260830034247 22 37 0.0 0.0 0.00 0.99 0.99 86 1010.5
20260830034226 22 37 0.0 0.0 0.00 0.99 0.99 86 1010.5
20260830033903 22 35 0.0 0.0 0.00 0.99 0.99 86 1010.6
20260830033759 22 37 0.0 0.0 0.00 0.99 0.99 86 1010.6
20260830033459 23 47 0.0 0.0 0.00 0.99 0.99 85 1010.6
20260830033259 23 48 0.0 0.0 0.00 0.99 0.99 85 1010.5
20260830033248 23 52 0.0 0.0 0.00 0.99 0.99 85 1010.4
20260830033225 23 52 0.0 0.0 0.00 0.99 0.99 85 1010.5
20260830032901 23 55 0.0 0.0 0.00 0.99 0.99 85 1010.5
20260830032803 23 47 0.0 0.0 0.00 0.99 0.99 85 1010.6
20260830032459 23 87 0.0 0.0 0.00 0.99 0.99 85 1010.6
20260830032402 23 42 0.0 0.0 0.00 0.99 0.99 85 1010.6
20260830032250 23 37 0.0 0.0 0.00 0.99 0.99 85 1010.6
20260830032227 23 41 0.0 0.0 0.00 0.99 0.99 85 1010.5
20260830031903 23 39 0.0 0.0 0.00 0.99 0.99 85 1010.6
20260830031701 23 34 0.0 0.0 0.00 0.99 0.99 85 1010.5
20260830031501 23 32 0.0 0.0 0.00 0.99 0.99 85 1010.6
20260830031406 23 47 0.0 0.0 0.00 0.99 0.99 85 1010.7
20260830031104 23 133 0.0 0.0 0.00 0.99 0.99 85 1010.7
20260830031006 23 134 0.0 0.0 0.00 0.99 0.99 85 1010.6
20260830031000 23 131 0.0 0.0 0.00 0.99 0.99 85 1010.7
20260830030702 23 109 0.0 0.0 0.00 0.99 0.99 85 1010.7
20260830030501 23 6 0.0 0.0 0.00 0.99 0.99 85 1010.4
20260830030302 23 6 0.0 0.0 0.00 0.99 0.99 85 1010.3
20260830030002 23 151 0.0 0.0 0.00 0.99 0.99 85 1010.3
20260830025904 23 154 0.0 0.0 0.00 0.99 0.99 85 1010.3
20260830025702 23 127 0.0 0.0 0.00 0.99 0.99 85 1010.2
20260830025502 23 133 0.0 0.0 0.00 0.99 0.99 85 1010.2
20260830025439 23 72 0.0 0.0 0.00 0.99 0.99 85 1010.1